PPDGH SBNF-SBLJ

Flight info

Callsign PPDGH
Flight time N/A
Altitude 4500
Route DCT 2646S04839W REA 2653S04904W DCT 2711S04949W DCT
Aircraft P28R/L-SDFGR/C

Departure

Time 2026-05-05 17:21
Airport Ministro Victor Konder International Airport (SBNF)

Arrival

Time N/A
Airport Lages Airport (SBLJ)
Time Latitude Longitude Altitude Speed Heading
2026-05-05 17:04 -26.87916 -48.64760 23 ft 0 kts 236°
2026-05-05 17:14 -26.87922 -48.64770 23 ft 3 kts 235°
2026-05-05 17:15 -26.87912 -48.64799 23 ft 6 kts 327°
2026-05-05 17:15 -26.87894 -48.64824 23 ft 5 kts 248°
2026-05-05 17:15 -26.87924 -48.64874 23 ft 11 kts 236°
2026-05-05 17:15 -26.87967 -48.64944 23 ft 8 kts 238°
2026-05-05 17:16 -26.87962 -48.64972 23 ft 0 kts 323°
2026-05-05 17:17 -26.87961 -48.64973 23 ft 1 kts 327°
2026-05-05 17:17 -26.87947 -48.64982 23 ft 4 kts 328°
2026-05-05 17:18 -26.87912 -48.65019 24 ft 10 kts 281°
2026-05-05 17:18 -26.87947 -48.65102 22 ft 14 kts 236°
2026-05-05 17:18 -26.88007 -48.65202 22 ft 17 kts 236°
2026-05-05 17:18 -26.88075 -48.65314 23 ft 18 kts 236°
2026-05-05 17:19 -26.88152 -48.65440 23 ft 21 kts 234°
2026-05-05 17:19 -26.88235 -48.65576 24 ft 22 kts 235°
2026-05-05 17:19 -26.88323 -48.65716 23 ft 18 kts 216°
2026-05-05 17:19 -26.88352 -48.65774 23 ft 9 kts 61°
2026-05-05 17:20 -26.88340 -48.65749 23 ft 0 kts 56°
2026-05-05 17:20 -26.88320 -48.65716 23 ft 24 kts 56°
2026-05-05 17:20 -26.88134 -48.65410 23 ft 69 kts 56°
2026-05-05 17:21 -26.87821 -48.64907 128 ft 84 kts 57°
2026-05-05 17:21 -26.87497 -48.64360 376 ft 84 kts 55°
2026-05-05 17:21 -26.87131 -48.63854 644 ft 86 kts 41°
2026-05-05 17:22 -26.86003 -48.63379 1061 ft 90 kts 359°
2026-05-05 17:22 -26.85373 -48.63417 1256 ft 91 kts 351°
2026-05-05 17:22 -26.84740 -48.63500 1578 ft 92 kts 348°
2026-05-05 17:22 -26.84116 -48.63641 1974 ft 92 kts 341°
2026-05-05 17:23 -26.83507 -48.63841 2401 ft 93 kts 342°
2026-05-05 17:23 -26.82877 -48.64014 2751 ft 95 kts 343°
2026-05-05 17:23 -26.82196 -48.64196 3001 ft 104 kts 340°
2026-05-05 17:23 -26.81441 -48.64450 3003 ft 121 kts 339°
2026-05-05 17:24 -26.80575 -48.64670 3013 ft 133 kts 346°
2026-05-05 17:24 -26.79652 -48.64895 2953 ft 136 kts 345°
2026-05-05 17:24 -26.78744 -48.65121 2947 ft 132 kts 345°
2026-05-05 17:24 -26.77859 -48.65420 2912 ft 133 kts 336°
2026-05-05 17:25 -26.77299 -48.66188 2910 ft 132 kts 291°
2026-05-05 17:25 -26.77201 -48.66877 2905 ft 135 kts 272°
2026-05-05 17:25 -26.77642 -48.68191 2932 ft 137 kts 248°
2026-05-05 17:25 -26.78015 -48.69174 2921 ft 135 kts 250°
2026-05-05 17:26 -26.78381 -48.70125 2923 ft 131 kts 249°
2026-05-05 17:26 -26.78716 -48.71055 2922 ft 127 kts 250°
2026-05-05 17:26 -26.79064 -48.71969 2920 ft 129 kts 248°
2026-05-05 17:26 -26.79383 -48.72894 2923 ft 126 kts 252°
2026-05-05 17:27 -26.79690 -48.73804 2923 ft 125 kts 251°
2026-05-05 17:27 -26.80002 -48.74712 2942 ft 128 kts 252°
2026-05-05 17:27 -26.80339 -48.75682 2942 ft 138 kts 252°
2026-05-05 17:27 -26.80686 -48.76676 2925 ft 133 kts 251°
2026-05-05 17:28 -26.80999 -48.77612 2924 ft 128 kts 253°
2026-05-05 17:28 -26.81297 -48.78553 2926 ft 129 kts 253°
2026-05-05 17:28 -26.81598 -48.79488 2922 ft 126 kts 253°
2026-05-05 17:28 -26.81892 -48.80408 2921 ft 124 kts 253°
2026-05-05 17:29 -26.82188 -48.81330 2935 ft 131 kts 253°
2026-05-05 17:29 -26.82503 -48.82323 2935 ft 139 kts 252°
2026-05-05 17:29 -26.82825 -48.83309 2928 ft 129 kts 253°
2026-05-05 17:29 -26.83142 -48.84237 2942 ft 131 kts 252°
2026-05-05 17:30 -26.83449 -48.85210 2926 ft 131 kts 252°
2026-05-05 17:30 -26.83758 -48.86177 2943 ft 135 kts 253°
2026-05-05 17:30 -26.84070 -48.87182 2933 ft 136 kts 253°
2026-05-05 17:30 -26.84389 -48.88180 2930 ft 134 kts 253°
2026-05-05 17:31 -26.84691 -48.89142 2924 ft 128 kts 253°
2026-05-05 17:31 -26.84989 -48.90075 2922 ft 127 kts 253°
2026-05-05 17:31 -26.85287 -48.90982 2927 ft 126 kts 252°
2026-05-05 17:31 -26.85569 -48.91894 2925 ft 120 kts 252°
2026-05-05 17:32 -26.85809 -48.92744 2934 ft 112 kts 254°
2026-05-05 17:32 -26.86063 -48.93587 2930 ft 117 kts 253°
2026-05-05 17:32 -26.86343 -48.94455 2927 ft 119 kts 252°
2026-05-05 17:32 -26.86606 -48.95313 2929 ft 114 kts 253°
2026-05-05 17:33 -26.86864 -48.96155 2933 ft 116 kts 253°
2026-05-05 17:33 -26.87144 -48.97018 2950 ft 118 kts 252°
2026-05-05 17:33 -26.87409 -48.97846 3084 ft 112 kts 252°
2026-05-05 17:33 -26.87671 -48.98683 3199 ft 113 kts 253°
2026-05-05 17:34 -26.87932 -48.99512 3365 ft 111 kts 254°
2026-05-05 17:34 -26.88198 -49.00330 3515 ft 115 kts 252°
2026-05-05 17:34 -26.88464 -49.01155 3696 ft 110 kts 253°
2026-05-05 17:34 -26.88732 -49.01985 3786 ft 114 kts 253°
2026-05-05 17:35 -26.88992 -49.02785 3972 ft 108 kts 253°
2026-05-05 17:35 -26.89259 -49.03599 4001 ft 113 kts 253°
2026-05-05 17:35 -26.89526 -49.04397 4117 ft 110 kts 253°
2026-05-05 17:35 -26.89791 -49.05217 4152 ft 112 kts 252°
2026-05-05 17:36 -26.90073 -49.06030 4258 ft 112 kts 251°
2026-05-05 17:36 -26.90349 -49.06850 4405 ft 112 kts 252°
2026-05-05 17:36 -26.90607 -49.07662 4487 ft 114 kts 253°
2026-05-05 17:36 -26.90803 -49.08234 4494 ft 119 kts 252°
2026-05-05 17:37 -26.91097 -49.09106 4494 ft 123 kts 253°
2026-05-05 17:37 -26.91404 -49.10018 4494 ft 128 kts 252°
2026-05-05 17:37 -26.91715 -49.10961 4493 ft 130 kts 252°
2026-05-05 17:37 -26.92024 -49.11912 4492 ft 130 kts 252°
2026-05-05 17:38 -26.92337 -49.12867 4486 ft 131 kts 252°
2026-05-05 17:38 -26.92648 -49.13808 4486 ft 129 kts 252°
2026-05-05 17:38 -26.92959 -49.14745 4482 ft 127 kts 253°
2026-05-05 17:38 -26.93266 -49.15647 4477 ft 120 kts 251°
2026-05-05 17:39 -26.93565 -49.16514 4482 ft 120 kts 252°
2026-05-05 17:39 -26.93854 -49.17399 4482 ft 122 kts 253°
2026-05-05 17:39 -26.94163 -49.18310 4495 ft 129 kts 252°
2026-05-05 17:39 -26.94485 -49.19236 4485 ft 124 kts 252°
2026-05-05 17:40 -26.94793 -49.20126 4487 ft 123 kts 251°
2026-05-05 17:40 -26.95093 -49.21022 4482 ft 122 kts 252°
2026-05-05 17:40 -26.95405 -49.21915 4482 ft 124 kts 251°
2026-05-05 17:40 -26.95710 -49.22821 4487 ft 125 kts 252°
2026-05-05 17:41 -26.96017 -49.23731 4486 ft 125 kts 252°
2026-05-05 17:41 -26.96327 -49.24643 4490 ft 125 kts 252°
2026-05-05 17:41 -26.96636 -49.25553 4493 ft 124 kts 252°
2026-05-05 17:41 -26.96945 -49.26450 4491 ft 125 kts 252°
2026-05-05 17:42 -26.97260 -49.27366 4495 ft 128 kts 251°
2026-05-05 17:42 -26.97582 -49.28287 4495 ft 126 kts 252°
2026-05-05 17:42 -26.97908 -49.29204 4490 ft 126 kts 251°
2026-05-05 17:42 -26.98232 -49.30111 4495 ft 126 kts 251°
2026-05-05 17:43 -26.98549 -49.31034 4497 ft 130 kts 252°
2026-05-05 17:43 -26.98873 -49.31976 4493 ft 128 kts 252°
2026-05-05 17:43 -26.99205 -49.32896 4489 ft 127 kts 251°
2026-05-05 17:43 -26.99535 -49.33812 4491 ft 126 kts 251°
2026-05-05 17:44 -26.99874 -49.34724 4492 ft 127 kts 249°
2026-05-05 17:44 -27.00227 -49.35646 4496 ft 129 kts 250°
2026-05-05 17:44 -27.00592 -49.36581 4500 ft 132 kts 249°
2026-05-05 17:44 -27.00958 -49.37516 4507 ft 131 kts 249°
2026-05-05 17:45 -27.01321 -49.38452 4498 ft 129 kts 250°
2026-05-05 17:45 -27.01677 -49.39363 4495 ft 126 kts 249°
2026-05-05 17:45 -27.02027 -49.40262 4495 ft 126 kts 249°
2026-05-05 17:45 -27.02381 -49.41162 4495 ft 127 kts 249°
2026-05-05 17:46 -27.02734 -49.42067 4493 ft 127 kts 250°
2026-05-05 17:46 -27.03079 -49.42955 4493 ft 125 kts 249°
2026-05-05 17:46 -27.03424 -49.43846 4490 ft 124 kts 249°
2026-05-05 17:46 -27.03773 -49.44736 4493 ft 125 kts 249°
2026-05-05 17:47 -27.04124 -49.45627 4493 ft 125 kts 249°
2026-05-05 17:47 -27.04469 -49.46523 4500 ft 126 kts 249°
2026-05-05 17:47 -27.04841 -49.47427 4500 ft 128 kts 248°
2026-05-05 17:47 -27.05210 -49.48329 4508 ft 128 kts 247°
2026-05-05 17:48 -27.05588 -49.49247 4506 ft 130 kts 248°
2026-05-05 17:48 -27.05963 -49.50169 4506 ft 130 kts 248°
2026-05-05 17:48 -27.06346 -49.51103 4513 ft 134 kts 249°
2026-05-05 17:48 -27.06734 -49.52053 4516 ft 134 kts 247°
2026-05-05 17:49 -27.07130 -49.53023 4501 ft 139 kts 247°
2026-05-05 17:49 -27.07522 -49.53995 4497 ft 134 kts 248°
2026-05-05 17:49 -27.07904 -49.54934 4495 ft 132 kts 248°
2026-05-05 17:49 -27.08293 -49.55865 4495 ft 131 kts 247°
2026-05-05 17:50 -27.08671 -49.56792 4500 ft 130 kts 248°
2026-05-05 17:50 -27.09057 -49.57720 4501 ft 132 kts 248°
2026-05-05 17:50 -27.09443 -49.58654 4498 ft 131 kts 248°
2026-05-05 17:50 -27.09826 -49.59569 4498 ft 129 kts 248°
2026-05-05 17:51 -27.10203 -49.60475 4501 ft 130 kts 248°
2026-05-05 17:51 -27.10585 -49.61405 4503 ft 131 kts 248°
2026-05-05 17:51 -27.10976 -49.62333 4506 ft 132 kts 248°
2026-05-05 17:51 -27.11363 -49.63284 4496 ft 133 kts 248°
2026-05-05 17:52 -27.11755 -49.64202 4513 ft 133 kts 249°
2026-05-05 17:52 -27.12148 -49.65170 4397 ft 135 kts 247°
2026-05-05 17:52 -27.12558 -49.66131 4220 ft 138 kts 247°
2026-05-05 17:52 -27.12957 -49.67101 4122 ft 135 kts 247°
2026-05-05 17:53 -27.13368 -49.68048 3977 ft 137 kts 246°
2026-05-05 17:53 -27.13782 -49.69015 3852 ft 137 kts 246°
2026-05-05 17:53 -27.14187 -49.69974 3743 ft 138 kts 248°
2026-05-05 17:53 -27.14596 -49.70939 3663 ft 135 kts 246°
2026-05-05 17:54 -27.15002 -49.71901 3549 ft 139 kts 248°
2026-05-05 17:54 -27.15418 -49.72854 3539 ft 135 kts 246°
2026-05-05 17:54 -27.15811 -49.73818 3408 ft 137 kts 248°
2026-05-05 17:54 -27.16183 -49.74787 3323 ft 136 kts 248°
2026-05-05 17:55 -27.16560 -49.75780 3195 ft 140 kts 249°
2026-05-05 17:55 -27.16940 -49.76808 3060 ft 141 kts 249°
2026-05-05 17:55 -27.17301 -49.77820 2888 ft 142 kts 250°
2026-05-05 17:55 -27.17654 -49.78857 2755 ft 142 kts 250°
2026-05-05 17:56 -27.18109 -49.79846 2584 ft 144 kts 240°
2026-05-05 17:56 -27.18586 -49.80828 2454 ft 141 kts 245°
2026-05-05 17:56 -27.18926 -49.81830 2463 ft 135 kts 253°
2026-05-05 17:56 -27.19183 -49.82832 2428 ft 132 kts 256°
2026-05-05 17:57 -27.19385 -49.83812 2454 ft 125 kts 259°
2026-05-05 17:57 -27.19617 -49.84735 2438 ft 122 kts 247°
2026-05-05 17:57 -27.20177 -49.85432 2415 ft 121 kts 216°
2026-05-05 17:57 -27.20939 -49.85716 2406 ft 110 kts 187°
2026-05-05 17:58 -27.21644 -49.85885 2374 ft 99 kts 193°
2026-05-05 17:58 -27.22306 -49.86044 2281 ft 96 kts 192°
2026-05-05 17:58 -27.22951 -49.85933 2128 ft 95 kts 157°
2026-05-05 17:58 -27.23355 -49.85394 2035 ft 92 kts 106°
2026-05-05 17:59 -27.23233 -49.84708 1994 ft 91 kts 59°
2026-05-05 17:59 -27.22845 -49.84139 1995 ft 93 kts 45°
2026-05-05 17:59 -27.22367 -49.83648 1978 ft 90 kts 35°
2026-05-05 17:59 -27.21799 -49.83377 1919 ft 90 kts 13°
2026-05-05 18:00 -27.21187 -49.83339 1837 ft 85 kts
2026-05-05 18:00 -27.20604 -49.83317 1736 ft 83 kts
2026-05-05 18:00 -27.20020 -49.83266 1602 ft 84 kts
2026-05-05 18:00 -27.19480 -49.83224 1462 ft 70 kts
2026-05-05 18:01 -27.19026 -49.83184 1459 ft 69 kts
2026-05-05 18:01 -27.18540 -49.83143 1529 ft 74 kts
2026-05-05 18:01 -27.18006 -49.83129 1661 ft 78 kts 360°
2026-05-05 18:01 -27.17454 -49.83140 1849 ft 81 kts 359°
2026-05-05 18:02 -27.16934 -49.83383 2036 ft 87 kts 316°
2026-05-05 18:02 -27.16693 -49.83999 2255 ft 88 kts 285°
2026-05-05 18:02 -27.16848 -49.84659 2459 ft 93 kts 232°
2026-05-05 18:02 -27.17436 -49.85033 2537 ft 103 kts 197°
2026-05-05 18:03 -27.18160 -49.85229 2593 ft 112 kts 192°
2026-05-05 18:03 -27.18938 -49.85436 2622 ft 117 kts 194°
2026-05-05 18:03 -27.19733 -49.85660 2638 ft 113 kts 195°
2026-05-05 18:03 -27.20436 -49.85868 2571 ft 98 kts 195°
2026-05-05 18:04 -27.21062 -49.86053 2426 ft 93 kts 194°
2026-05-05 18:04 -27.21716 -49.86040 2308 ft 97 kts 165°
2026-05-05 18:04 -27.22211 -49.85576 2190 ft 95 kts 112°
2026-05-05 18:04 -27.22187 -49.84887 2101 ft 85 kts 76°
2026-05-05 18:05 -27.22030 -49.84267 2009 ft 81 kts 67°
2026-05-05 18:05 -27.21781 -49.83700 1936 ft 82 kts 57°
2026-05-05 18:05 -27.21323 -49.83338 1852 ft 82 kts 15°
2026-05-05 18:05 -27.20768 -49.83313 1774 ft 77 kts
2026-05-05 18:06 -27.20229 -49.83280 1652 ft 78 kts
2026-05-05 18:06 -27.19880 -49.83258 1541 ft 72 kts
2026-05-05 18:06 -27.19283 -49.83207 1457 ft 50 kts
2026-05-05 18:06 -27.19027 -49.83180 1450 ft 22 kts
2026-05-05 18:07 -27.18982 -49.83170 1451 ft 10 kts 199°
2026-05-05 18:07 -27.19050 -49.83183 1449 ft 9 kts 187°
2026-05-05 18:07 -27.19101 -49.83189 1450 ft 5 kts 184°
2026-05-05 18:07 -27.19123 -49.83191 1451 ft 6 kts 184°
2026-05-05 18:08 -27.19194 -49.83199 1452 ft 15 kts 184°
2026-05-05 18:08 -27.19321 -49.83208 1456 ft 21 kts 182°
2026-05-05 18:08 -27.19464 -49.83220 1457 ft 11 kts 187°
2026-05-05 18:08 -27.19501 -49.83222 1455 ft 2 kts 152°
2026-05-05 18:09 -27.19510 -49.83209 1455 ft 1 kts 100°
2026-05-05 18:09 -27.19510 -49.83203 1455 ft 3 kts 88°
2026-05-05 18:09 -27.19510 -49.83196 1455 ft 0 kts 89°